This is the latest recevied weather packets stored in our database for station/object K4CRS-13. If no packets are shown the sender has not sent any weather packets the latest 10 day(s).
| Time | Temp. | Humidity | Pressure | Rain* | Wind** | Luminosity | Snow |
|---|---|---|---|---|---|---|---|
| 1777513166 | 18.33° C | 89% | 1047.2 hPa | 0 mm | - | 0 W/m² | - |
| 1777512861 | 18.33° C | 89% | 1047.2 hPa | 0 mm | - | 0 W/m² | - |
| 1777512558 | 18.33° C | 89% | 1047.3 hPa | 0 mm | - | 0 W/m² | - |
| 1777512255 | 18.33° C | 89% | 1047.1 hPa | 0 mm | - | 0 W/m² | - |
| 1777511952 | 18.89° C | 89% | 1047.2 hPa | 0 mm | - | 0 W/m² | - |
| 1777511649 | 18.89° C | 89% | 1046.9 hPa | 0 mm | - | 0 W/m² | - |
| 1777511348 | 18.89° C | 89% | 1046.9 hPa | 0 mm | - | 0 W/m² | - |
| 1777511042 | 18.89° C | 89% | 1046.7 hPa | 0 mm | - | 0 W/m² | - |
| 1777510739 | 18.89° C | 88% | 1046.5 hPa | 0 mm | - | 0 W/m² | - |
| 1777510436 | 18.89° C | 88% | 1046.4 hPa | 0 mm | - | 0 W/m² | - |
| 1777510132 | 19.44° C | 87% | 1046.5 hPa | 0 mm | - | 0 W/m² | - |
| 1777509829 | 19.44° C | 86% | 1046.5 hPa | 0 mm | - | 0 W/m² | - |
| 1777509524 | 19.44° C | 87% | 1046.6 hPa | 0 mm | - | 1 W/m² | - |
| 1777509222 | 19.44° C | 87% | 1046.4 hPa | 0 mm | - | 1 W/m² | - |
| 1777508919 | 19.44° C | 87% | 1046.4 hPa | 0 mm | - | 2 W/m² | - |
| 1777508615 | 19.44° C | 87% | 1046.6 hPa | 0 mm | - | 4 W/m² | - |
| 1777508313 | 20° C | 87% | 1046.5 hPa | 0 mm | - | 6 W/m² | - |
| 1777508010 | 20° C | 87% | 1046.4 hPa | 0 mm | - | 9 W/m² | - |
| 1777507706 | 20° C | 87% | 1046.6 hPa | 0 mm | - | 11 W/m² | - |
| 1777507404 | 20° C | 87% | 1046.5 hPa | 0 mm | - | 12 W/m² | - |
| 1777507101 | 20° C | 87% | 1046.2 hPa | 0 mm | - | 16 W/m² | - |
| 1777506799 | 20° C | 86% | 1046.1 hPa | 0 mm | - | 19 W/m² | - |
| 1777506495 | 20° C | 86% | 1046 hPa | 0 mm | - | 20 W/m² | - |
| 1777506190 | 20° C | 85% | 1046.1 hPa | 0 mm | - | 26 W/m² | - |
| 1777505887 | 20.56° C | 85% | 1046.1 hPa | 0 mm | - | 31 W/m² | - |
* Rain latest hour (hover to see other rain measurements)
** Current wind speed in m/s (hover to see current wind gust speed)